Location: ?nandapuram
(16.5396°N, 81.1430°E)
Time: 09:50:54
(UTC+00:00)

CZ-2D R/B - Pass Details

Date: 14 April 2026
Orbit: 523 x 594 km, 98.0° (Epoch: 12 May)

Event Time Altitude Azimuth Distance (km) Brightness Sun altitude
Rises 13:21:57 0° 159° (SSE) 2,801 6.6 -8.2°
Reaches altitude 10° 13:24:09 10° 154° (SSE) 1,894 5.7 -8.7°
Maximum altitude 13:28:09 54° 77° (ENE) 701 3.5 -9.6°
Drops below altitude 10° 13:32:05 10° 0° (N) 1,860 6.2 -10.5°
Sets 13:34:14 0° 356° (N) 2,744 7.1 -11.0°
